Lapse_Rate
5.1 4.5 3.5 2.5 3.1 3.6 1.5 0.5 0.9 1.3 2.0 1.1 -1.0 -1.5 -1.7 -1.1 -1.6 -0.8 0.8 1.0 0.5 -0.7 -1.5 -1.5 -1.3 -2.1 -2.4 -2.3 -2.1 -2.7 -2.7 -2.4
5.6 4.6 3.5 1.5 1.9 2.4 0.8 -0.1 0.1 1.0 1.0 1.2 0.4 -1.0 -1.1 -1.6 -1.6 -1.1 -0.8 -0.4 -0.3 -0.9 -1.7 -1.6 -1.6 -2.0 -2.2 -1.9 -2.3 -2.0 -2.4 -2.1
3.6 3.4 3.4 2.4 1.4 -0.5 0.9 0.9 -0.1 0.9 1.0 0.2 -0.5 0.0 -1.3 -1.7 -2.1 -2.1 -1.5 -1.3 -1.2 -1.6 -2.3 -2.5 -2.8 -2.8 -2.5 -2.1 -1.7 -1.8 -1.6 -2.0
2.0 2.9 2.9 2.2 1.1 -0.1 0.0 -1.1 0.3 0.7 0.4 -0.2 -0.4 -0.4 -1.1 -1.8 -2.1 -2.7 -2.5 -1.4 -1.1 -1.2 -1.3 -1.8 -2.3 -2.6 -2.5 -2.4 -1.6 -0.7 -1.0 -1.6
3.1 2.0 2.0 1.4 1.3 1.4 0.5 -0.6 0.5 0.3 1.1 0.8 0.9 0.5 -0.1 -1.5 -2.3 -2.6 -2.3 -0.9 -1.2 -1.1 -1.4 -1.7 -1.9 -2.1 -1.9 -1.5 -1.4 -1.4 -1.2 -0.6
1.7 2.4 1.4 3.2 3.0 2.1 1.1 0.8 1.5 1.5 1.6 1.9 0.6 0.5 -1.3 -1.0 -1.2 -1.1 -1.1 -1.0 0.1 0.0 -0.6 -1.3 -2.0 -2.3 -2.3 -2.0 -1.9 -1.9 -1.8 -1.5
2.3 3.3 3.7 3.5 3.3 2.9 2.3 2.2 2.4 2.4 2.2 1.8 2.0 0.7 -0.1 -0.3 -0.4 -0.4 -0.4 -0.6 -1.0 -0.3 -0.5 -1.2 -1.4 -2.1 -2.1 -2.2 -1.8 -1.3 -1.5 -1.9
4.7 4.9 5.2 5.2 5.1 4.4 3.6 3.4 3.2 2.7 2.5 2.3 2.2 1.8 1.5 0.8 0.4 -0.1 -1.0 -1.1 -1.1 -1.0 -0.7 -0.6 -0.8 -0.6 -0.4 -0.5 -0.8 -1.1 -1.1 -1.1
5.3 5.6 5.6 5.2 4.4 4.1 4.0 3.7 3.7 3.0 1.9 1.8 1.8 2.6 1.3 1.1 1.1 0.7 0.1 -0.5 -1.3 -1.3 -0.7 0.2 0.4 0.5 0.2 -0.1 -0.8 -1.1 -1.5 -1.5
4.1 4.1 4.0 3.9 4.1 3.8 4.0 3.7 3.0 2.4 1.8 1.5 2.1 2.2 1.4 0.9 1.1 0.4 0.1 0.0 0.1 -0.4 -0.1 -0.3 0.2 0.5 0.7 0.5 0.1 0.0 -0.3 -0.9
3.8 3.8 3.7 3.9 3.6 3.7 3.0 3.4 3.2 3.1 2.1 2.0 1.8 1.6 1.5 1.7 1.2 0.4 0.1 0.2 0.3 0.4 0.4 0.6 1.0 1.1 1.1 0.5 0.3 0.5 0.2 -1.0
4.6 4.3 3.8 4.0 3.6 2.8 2.8 2.4 1.3 1.3 0.8 1.8 1.3 0.5 0.7 1.0 1.0 0.8 1.0 1.0 1.0 1.1 1.3 1.5 1.5 1.4 1.1 1.5 1.6 1.1 -0.2 -0.5
2.4 2.2 2.6 3.0 2.7 2.6 2.7 2.5 2.3 1.4 0.9 0.6 0.0 -0.0 0.5 0.8 1.1 1.2 1.5 1.9 2.0 2.1 2.3 2.0 1.3 1.6 2.2 1.8 3.5 1.0 0.1 0.5
3.7 2.1 0.9 1.2 1.8 2.0 1.9 1.6 1.0 0.4 0.6 0.2 0.1 0.1 0.1 0.2 0.7 1.0 1.2 1.5 1.5 2.4 3.0 1.8 2.4 3.1 2.8 1.5 2.7 1.5 0.8 0.4
4.1 2.8 2.0 1.5 1.8 1.3 1.0 -0.0 -0.7 -1.0 -0.9 -0.7 -0.8 -0.7 0.1 0.4 0.7 1.1 1.3 1.7 1.7 1.9 2.3 2.7 2.2 1.3 3.8 2.2 3.2 1.5 1.0 0.4
3.4 2.6 1.4 1.5 1.1 0.6 0.4 -0.5 -0.7 -0.6 -0.3 -0.6 -1.2 -1.4 -0.6 0.0 0.4 0.7 1.1 1.3 1.3 1.4 1.4 0.5 1.1 1.7 3.2 2.8 3.5 2.0 1.1 0.5
3.7 3.1 2.1 1.8 1.3 0.5 0.1 -0.7 -0.8 -0.4 -0.8 -1.5 -1.9 -1.2 -0.8 -0.1 0.4 0.2 0.2 0.5 1.0 0.7 1.0 1.3 1.7 2.9 3.5 4.3 3.7 2.8 2.3 1.3
2.6 2.4 1.7 1.4 1.0 0.7 0.0 -1.0 -1.7 -1.4 -2.0 -1.5 -1.4 -1.1 -0.4 -0.3 -0.3 -0.1 0.3 0.7 0.7 0.8 1.1 1.9 2.3 3.2 3.3 4.2 4.8 3.5 2.6 1.4
1.7 1.4 0.6 0.5 -0.2 -0.6 -1.9 -2.0 -1.7 -2.1 -1.9 -1.2 -0.6 -0.4 -0.4 -0.2 -0.0 0.5 0.5 0.7 0.8 0.7 1.0 1.8 2.8 3.8 4.8 3.6 3.8 1.9 0.3 -0.8
Wind_Speed
20 19 16 15 14 15 11 10 13 14 10 8 5 4 4 8 8 9 10 9 11 11 8 7 7 4 3 3 4 4 3 3
17 14 15 15 15 16 15 15 14 12 9 9 5 4 3 3 5 11 13 13 11 11 7 6 6 4 3 3 2 4 5 4
9 15 16 18 19 18 16 15 15 10 9 6 4 4 2 3 4 8 13 13 13 11 7 5 5 4 4 3 3 2 2 3
9 16 20 18 19 19 16 17 16 11 10 9 7 5 4 2 1 3 3 11 12 12 9 6 4 3 3 2 2 3 3 3
10 16 17 20 16 15 15 15 13 11 12 9 14 6 6 3 3 2 3 9 10 12 12 9 6 4 4 3 2 2 3 3
11 18 17 9 11 12 13 14 13 11 8 9 7 7 3 4 4 6 5 4 7 8 9 8 5 4 4 5 4 5 2 2
16 14 12 10 9 10 10 13 11 9 8 7 5 8 9 8 5 4 4 3 3 5 7 7 7 5 5 4 4 5 4 5
15 16 13 12 11 11 10 10 9 8 8 7 6 7 9 11 10 7 8 5 3 4 4 4 3 5 6 5 4 5 4 4
14 14 12 12 12 11 10 8 6 7 8 7 6 7 6 6 7 6 5 4 5 6 6 6 6 7 6 6 3 4 5 5
15 15 15 14 12 12 11 9 6 7 10 7 8 7 8 8 8 7 5 5 5 5 7 6 6 7 7 6 4 4 5 5
13 14 13 13 15 14 15 14 14 12 11 8 8 8 9 9 8 9 9 7 7 7 6 5 5 6 7 6 4 5 6 5
4 5 9 9 7 6 6 7 8 8 9 6 7 6 7 7 7 7 8 8 8 8 6 6 5 6 5 6 5 6 7 6
6 7 6 6 7 8 10 9 9 8 7 7 8 7 8 8 7 7 7 7 6 7 6 6 6 5 4 7 5 5 6 5
3 4 6 8 8 7 8 8 9 9 9 9 7 7 8 8 10 10 9 9 8 8 7 6 5 3 3 7 6 7 6 5
7 5 7 7 8 10 9 7 8 9 9 9 9 8 8 8 8 8 9 9 8 7 6 6 5 6 3 7 7 7 7 5
8 7 8 9 8 6 6 7 9 10 9 8 7 7 7 8 8 8 8 8 7 7 7 7 5 5 3 4 6 7 7 7
8 8 10 12 12 12 10 9 9 9 7 6 6 7 7 7 9 8 7 6 6 7 7 8 7 4 4 12 9 7 7 8
9 9 12 12 12 12 12 10 8 8 8 8 8 8 9 9 9 9 9 9 9 8 8 6 6 6 13 12 11 6 6 5
10 9 9 11 8 7 8 9 10 10 9 9 10 10 9 9 9 8 9 9 9 9 8 7 6 5 14 15 12 5 5 5
Wind_Direction
202 198 189 179 185 184 158 155 145 142 138 124 94 93 103 115 108 109 120 119 122 112 105 104 111 101 92 80 89 47 80 67
198 193 177 175 179 175 172 153 158 146 145 139 136 134 128 114 122 131 133 131 128 120 115 114 109 105 119 141 104 64 37 13
182 185 181 185 184 175 166 163 158 162 156 137 130 144 107 115 129 125 140 136 137 135 137 136 130 123 114 132 145 126 90 24
179 183 187 182 185 178 166 159 156 152 141 118 105 87 87 103 132 108 117 134 133 132 128 121 111 107 114 92 102 124 135 40
209 189 185 191 176 160 158 156 149 143 147 137 154 162 159 154 129 98 98 124 127 133 132 129 121 121 108 92 78 90 114 139
213 194 191 159 149 150 147 140 138 135 133 148 142 134 69 74 76 99 84 63 82 95 107 112 107 103 98 100 80 73 65 115
55 64 72 79 96 111 120 121 113 118 125 120 113 129 133 131 135 127 119 96 81 103 125 125 126 121 120 114 110 100 99 93
67 69 74 77 82 87 89 101 109 103 110 130 150 159 155 155 162 163 151 144 131 117 101 112 103 105 107 106 93 91 85 81
101 108 107 104 93 83 73 80 123 140 146 157 150 181 166 152 166 161 155 155 146 141 129 120 107 107 101 98 84 86 90 83
127 130 127 121 131 145 154 161 152 158 169 163 185 168 167 160 161 149 140 129 134 127 130 122 121 124 123 110 97 90 81 79
145 148 149 154 161 168 170 178 182 203 155 180 177 177 156 167 151 156 147 143 135 135 126 123 126 133 123 115 105 89 93 69
139 170 173 181 160 139 150 150 140 155 117 150 145 134 146 145 148 143 141 137 136 128 128 133 135 131 119 109 100 102 98 94
191 196 160 133 126 137 159 152 157 135 128 133 131 133 141 128 118 111 116 118 120 126 122 108 102 107 119 124 121 117 115 111
236 147 161 152 150 154 154 155 149 139 141 139 132 134 129 128 131 130 121 114 108 107 106 106 112 127 142 112 122 117 100 102
232 180 177 173 171 171 166 145 146 147 140 142 143 143 137 131 125 124 124 121 117 117 121 124 103 89 97 113 127 113 108 96
217 195 184 180 178 165 155 155 158 158 155 156 155 134 128 130 129 128 127 131 128 130 125 113 104 111 104 120 138 125 122 114
241 202 181 183 186 183 176 169 165 158 152 139 129 129 125 133 135 134 123 117 125 127 131 132 138 124 171 172 146 137 138 137
212 214 188 188 188 181 184 170 147 147 137 140 144 139 145 146 140 144 151 152 144 145 142 143 143 139 142 144 145 131 137 132
217 204 190 184 167 157 133 143 154 155 154 160 162 165 162 155 157 159 155 157 156 153 149 146 135 143 151 145 146 103 109 101